Topeka, KS

8:29 PM CDT on April 26, 2018 (GMT -0500)
Billard Municipal

Weather History for KTOP - September, 2014

Change the Weather History Date:

Thursday, September 11, 2014

  Actual Average Record
Temperature  
Mean Temperature 58 °F 70 °F  
Max Temperature 63 °F 82 °F 104 °F (2000)
Min Temperature 53 °F 58 °F 39 °F (1959)
Degree Days  
Heating Degree Days 7 1  
Month to date heating degree days 7 6  
Since 1 July heating degree days 7 8  
Cooling Degree Days 0 6  
Month to date cooling degree days 101 87  
Year to date cooling degree days 1511 1315  
Growing Degree Days 9 (Base 50)    
Moisture  
Dew Point 53 °F    
Average Humidity 82    
Maximum Humidity 100    
Minimum Humidity 64    
Precipitation  
Precipitation 0.01 in 0.12 in 2.17 in (1913)
Month to date precipitation 3.97 1.35  
Year to date precipitation 23.81 27.92  
Snow  
Snow 0.00 in 0.00 in 0.00 in ()
Month to date snowfall 0.0 0.0  
Year to date snowfall 23.1 11.3  
Since 1 July snowfall T 0.0  
Snow Depth 0.00 in    
Sea Level Pressure  
Sea Level Pressure 30.17 in    
Wind  
Wind Speed 11 mph (NNE)    
Max Wind Speed 13 mph    
Max Gust Speed -    
Visibility 9 miles    
Events Rain    
T = Trace of Precipitation, MM = Missing Value Source: NWS Daily Summary

Daily Weather History Graph

Daily Weather History Graph

Search for Another Location

Airport or City:

Astronomy

Sep. 11, 2014 Rise Set
Actual Time 7:00 AM CDT 7:37 PM CDT
Civil Twilight 6:33 AM CDT 8:04 PM CDT
Nautical Twilight 6:01 AM CDT 8:35 PM CDT
Astronomical Twilight 5:28 AM CDT 9:08 PM CDT
Moon 9:18 PM CDT (9/11) 9:56 AM CDT (9/11)
Length of Visible Light 13h 30m
Length of Day
12h 36m
Waning Gibbous, 90% of the Moon is Illuminated
Sep 11
Waning Gibbous
Sep 15
Last Quarter
Sep 24
New
Oct 1
First Quarter
Oct 8
Full

Hourly Weather History & Observations

Time (CDT) Temp. Dew Point Humidity Pressure Visibility Wind Dir Wind Speed Gust Speed Precip Events Conditions
12:53 AM 61.0 °F 55.0 °F 81% 30.06 in 10.0 mi North 12.7 mph - N/A   Overcast
1:53 AM 60.1 °F 55.0 °F 83% 30.07 in 10.0 mi NNE 12.7 mph - N/A   Overcast
2:34 AM 59.0 °F 55.0 °F 87% 30.08 in 10.0 mi North 10.4 mph - N/A   Overcast
2:53 AM 59.0 °F 55.0 °F 87% 30.07 in 10.0 mi NNE 12.7 mph - N/A   Overcast
3:27 AM 57.9 °F 53.1 °F 84% 30.08 in 10.0 mi North 12.7 mph - N/A   Overcast
3:53 AM 57.9 °F 53.1 °F 84% 30.08 in 10.0 mi North 10.4 mph - N/A   Overcast
4:18 AM 57.9 °F 53.1 °F 84% 30.10 in 10.0 mi North 11.5 mph - N/A   Overcast
4:53 AM 57.9 °F 53.1 °F 84% 30.11 in 10.0 mi North 8.1 mph - N/A   Overcast
5:53 AM 55.9 °F 55.0 °F 97% 30.14 in 5.0 mi North 6.9 mph - 0.00 in Rain Light Rain
6:53 AM 55.0 °F 55.0 °F 100% 30.17 in 5.0 mi NNE 8.1 mph - 0.01 in   Overcast
7:27 AM 54.0 °F 53.1 °F 97% 30.18 in 5.0 mi North 10.4 mph - 0.00 in   Overcast
7:53 AM 54.0 °F 52.0 °F 93% 30.18 in 10.0 mi North 9.2 mph - 0.00 in   Overcast
8:53 AM 55.0 °F 53.1 °F 93% 30.19 in 7.0 mi NNW 9.2 mph - N/A   Overcast
9:26 AM 55.0 °F 53.1 °F 93% 30.19 in 10.0 mi North 9.2 mph - N/A   Overcast
9:48 AM 55.4 °F 51.8 °F 88% 30.19 in 10.0 mi North 9.2 mph - N/A   Overcast
9:53 AM 55.0 °F 53.1 °F 93% 30.19 in 10.0 mi North 9.2 mph - N/A   Overcast
1:42 PM 61.0 °F 52.0 °F 72% 30.22 in 10.0 mi NE 11.5 mph - N/A   Overcast
1:53 PM 62.1 °F 52.0 °F 70% 30.22 in 10.0 mi ENE 10.4 mph - N/A   Overcast
2:53 PM 63.0 °F 52.0 °F 67% 30.21 in 10.0 mi NE 11.5 mph - N/A   Overcast
3:53 PM 64.0 °F 53.1 °F 67% 30.20 in 10.0 mi North 9.2 mph - N/A   Overcast
4:53 PM 62.6 °F 51.8 °F 68% 30.20 in 10.0 mi North 11.5 mph - N/A   Overcast
5:53 PM 61.0 °F 51.1 °F 70% 30.20 in 10.0 mi North 11.5 mph - N/A   Overcast
6:53 PM 60.1 °F 51.1 °F 72% 30.20 in 10.0 mi NNE 11.5 mph - N/A   Overcast
7:53 PM 60.1 °F 51.1 °F 72% 30.21 in 10.0 mi NNE 8.1 mph - N/A   Overcast
8:06 PM 59.0 °F 51.1 °F 75% 30.21 in 10.0 mi NE 8.1 mph - N/A   Overcast
8:53 PM 59.0 °F 52.0 °F 78% 30.23 in 10.0 mi NE 6.9 mph - N/A   Overcast
9:32 PM 59.0 °F 52.0 °F 78% 30.25 in 10.0 mi NE 9.2 mph - N/A   Overcast
9:53 PM 59.0 °F 51.1 °F 75% 30.25 in 10.0 mi NE 6.9 mph - N/A   Overcast
10:53 PM 59.0 °F 52.0 °F 78% 30.26 in 10.0 mi NNE 6.9 mph - N/A   Overcast
11:53 PM 57.9 °F 53.1 °F 84% 30.28 in 10.0 mi NNE 8.1 mph - 0.00 in Rain Light Rain